Location: Three Guys Observatory
(38.6418°N, 87.1521°W)
Time: 01:23:30
(UTC-04:00)

ISS - Visible Passes

Search period start: 25 May 2015 00:00
Search period end: 04 June 2015 00:00
Orbit: 399 x 404 km, 51.6° (Epoch: 24 May)

Date Brightness Start Highest point End Pass type
(mag) Time Alt. Az. Time Alt. Az. Time Alt. Az.
25 May -0.2 02:37:37 15° NNE 02:37:37 15° NNE 02:38:30 10° NNE visible
25 May 0.0 05:49:58 10° N 05:50:49 11° NNE 05:51:42 10° NNE visible
26 May -0.2 03:18:31 10° NNW 03:19:36 11° NNW 03:20:39 10° N visible
27 May -0.1 02:26:45 14° N 02:26:45 14° N 02:27:59 10° NNE visible
27 May -0.2 05:39:11 10° NNW 05:41:09 15° NNE 05:43:10 10° ENE visible
28 May 0.1 01:34:50 11° NNE 01:34:50 11° NNE 01:35:07 10° NNE visible
28 May 0.0 04:46:29 10° N 04:47:35 11° NNE 04:48:45 10° NE visible
29 May 0.1 02:15:34 10° NNW 02:16:20 11° NNW 02:17:05 10° N visible
29 May -0.7 05:28:37 10° NNW 05:31:20 24° NNE 05:34:04 10° E visible
30 May -0.1 01:22:25 14° NNW 01:22:45 14° NNW 01:24:29 10° NNE visible
30 May -0.1 04:35:41 10° NNW 04:37:50 16° NNE 04:40:00 10° ENE visible
30 May -3.4 22:49:20 10° SW 22:52:31 60° SE 22:55:44 10° ENE visible
31 May -0.5 00:26:45 10° WNW 00:29:11 19° NNW 00:31:36 10° NNE visible
31 May 0.2 03:42:53 10° N 03:44:14 12° NNE 03:45:37 10° NE visible
31 May -2.1 05:18:09 10° NW 05:21:19 46° NE 05:24:28 10° ESE visible
31 May -2.5 21:56:31 10° SSW 21:59:19 28° SE 22:02:10 10° ENE visible
31 May -1.3 23:32:47 10° W 23:35:41 29° NNW 23:38:36 10° NNE visible
01 Jun 0.4 01:12:42 10° NNW 01:12:57 10° N 01:13:10 10° N visible
01 Jun -1.0 04:25:03 10° NNW 04:27:53 26° NNE 04:30:43 10° E visible
01 Jun -2.6 22:39:06 10° WSW 22:42:16 54° NW 22:45:28 10° NE visible
02 Jun 0.2 00:17:43 10° NW 00:19:17 13° NNW 00:20:49 10° NNE visible
02 Jun -0.3 03:32:04 10° NNW 03:34:21 18° NNE 03:36:40 10° ENE visible
02 Jun -3.5 05:07:50 10° NW 05:11:05 73° SW 05:14:20 10° SE visible
02 Jun -3.4 21:45:43 10° SW 21:48:56 73° SE 21:52:11 10° NE visible
02 Jun -0.2 23:23:22 10° WNW 23:25:40 17° NNW 23:27:57 10° NNE visible
03 Jun 0.1 02:39:11 10° NNW 02:40:44 13° NNE 02:42:20 10° NE visible
03 Jun -2.6 04:14:32 10° NW 04:17:45 54° NE 04:20:57 10° ESE visible
03 Jun -1.5 05:52:02 10° W 05:53:52 14° SW 05:55:36 10° SSW visible
03 Jun -0.9 22:29:18 10° W 22:32:07 26° NNW 22:34:55 10° NNE visible
